GFSGL_sfc_rhum_000.txt.gz
RH
65 71 72 66 70 72 77 78 81 84 78 69 68 71 73 76 78 82 82 78 75 75 71 70 71 70 74 77 82 84 82 84 85 70 72 68 71 72 65 70 78 80 84
70 72 71 73 70 71 74 72 70 63 62 63 62 63 64 67 70 71 71 68 69 69 69 72 72 56 73 75 80 84 86 84 83 82 84 77 76 74 76 79 72 71 81
74 79 70 64 67 73 73 80 80 78 70 67 62 58 63 68 66 64 66 68 71 73 75 76 76 76 78 79 79 82 84 72 84 91 81 85 83 83 81 81 82 85 76
86 80 82 81 75 82 94 94 87 81 72 70 69 70 73 64 59 61 65 72 70 67 71 72 73 74 72 72 70 72 72 79 76 79 75 77 85 80 82 78 82 86 76
93 92 90 87 90 95 94 93 89 88 84 87 83 67 65 59 53 74 69 68 71 74 74 70 70 71 65 66 67 74 81 87 83 82 78 74 72 77 78 70 76 76 80
92 94 92 91 85 87 89 91 91 91 89 94 79 68 68 57 76 67 73 80 78 75 77 72 73 74 77 74 72 72 73 81 83 81 77 77 72 75 72 73 79 81 80
80 64 70 70 74 81 85 90 86 76 71 66 65 70 74 75 72 71 70 79 83 83 82 82 77 68 73 75 78 76 76 76 80 82 87 84 76 68 72 84 84 82 78
70 77 77 71 68 67 64 63 66 63 61 64 70 79 80 69 70 68 69 81 86 86 83 82 84 84 80 77 76 78 81 80 74 71 81 80 78 74 74 70 74 78 80
82 86 82 67 67 67 68 66 64 64 66 75 80 80 78 78 72 71 72 91 92 91 82 82 85 82 82 80 86 95 89 81 72 73 77 80 77 78 77 84 91 92 93
72 68 64 69 73 74 68 67 65 71 74 76 74 78 78 90 80 75 75 90 96 94 90 80 77 78 80 83 91 96 95 83 78 84 81 74 76 83 84 83 92 94 91
66 66 69 74 75 67 69 71 75 80 82 91 93 92 88 86 90 78 73 86 94 93 92 88 88 88 78 74 77 91 92 83 95 94 93 86 90 86 88 87 89 95 93
68 69 72 77 70 62 74 75 72 82 92 93 97 96 95 94 85 79 74 76 82 97 94 92 95 79 75 76 80 82 81 87 93 90 95 93 93 89 83 81 83 85 82
70 70 74 76 71 66 74 77 79 86 96 96 95 93 90 92 93 80 80 84 86 96 96 96 92 78 80 86 83 87 94 95 95 95 92 90 89 84 89 95 96 87 87
71 72 76 79 80 75 74 72 80 96 98 96 95 94 92 92 90 88 94 93 89 94 96 94 95 88 88 89 91 90 94 95 95 94 94 94 94 96 96 96 96 95 97
70 72 79 83 86 84 77 78 91 95 95 93 95 96 96 94 91 88 91 94 96 96 97 96 91 89 88 87 87 88 91 92 93 95 95 95 94 95 95 96 96 96 96
76 84 96 97 97 91 81 82 72 76 72 68 70 82 85 81 84 86 90 92 93 93 93 94 96 95 94 92 93 91 89 91 91 93 95 94 95 95 95 94 96 96 95
95 94 98 92 97 97 97 96 98 84 76 71 75 73 72 79 87 88 91 92 92 89 94 94 96 95 94 92 92 93 94 93 94 93 93 95 95 96 97 96 97 96 96
96 96 97 97 98 98 99 98 99 99 100 96 85 76 77 80 87 89 90 89 90 89 91 94 95 94 93 92 92 93 92 92 92 93 94 95 96 95 96 96 95 96 95
96 97 96 98 98 98 98 98 98 99 98 98 95 91 92 79 82 87 88 94 94 92 91 91 94 93 93 92 95 95 96 95 96 96 95 94 96 94 93 96 97 99 96
93 95 95 97 98 98 98 98 98 98 98 97 98 99 94 89 94 94 95 96 95 94 94 92 91 92 94 94 95 96 94 94 94 95 97 98 97 97 97 96 98 98 96
98 97 98 97 98 99 98 98 99 100 98 97 100 99 95 96 97 96 95 95 95 94 95 93 94 95 94 94 93 96 95 95 94 95 97 97 99 99 97 96 97 96 94
96 99 98 98 98 99 99 99 100 100 99 99 98 97 94 98 98 96 96 97 97 95 94 95 95 94 94 94 95 96 96 97 95 95 97 97 98 98 96 96 97 97 95
97 99 98 98 100 100 99 99 100 100 100 99 100 98 98 98 98 97 97 97 96 96 95 95 96 94 93 95 96 96 97 98 99 99 97 98 97 99 100 98 98 96 96
98 100 99 100 100 100 100 100 100 100 100 100 100 99 99 98 98 97 98 98 97 96 96 96 96 96 92 92 94 94 94 95 96 97 97 96 96 96 96 97 98 99 98
98 98 100 100 100 100 100 100 100 100 100 100 99 99 99 99 97 97 97 97 96 96 95 95 96 95 95 94 93 92 93 97 93 95 95 94 92 92 95 95 97 96 97
98 98 99 100 100 100 99 100 100 100 100 100 100 99 99 98 98 98 97 96 96 96 94 96 95 94 94 92 91 94 92 93 93 90 93 90 91 93 93 92 91 92 94

GFSGL_sfc_rhum_003.txt.gz
RH
53 57 59 58 54 54 58 61 61 63 55 52 52 55 60 65 68 66 64 57 51 52 55 56 56 52 46 45 45 44 43 43 47 40 35 39 43 41 36 38 41 40 42
58 58 60 53 48 56 60 62 66 63 59 54 54 63 66 60 59 55 53 48 45 44 44 48 47 38 50 52 52 55 51 49 50 52 43 44 47 44 45 48 40 38 44
58 62 58 58 53 60 71 72 70 68 64 66 71 69 61 54 50 46 47 48 48 50 52 55 54 54 53 50 51 50 48 42 46 47 47 42 44 43 44 44 47 48 41
69 66 70 70 70 76 75 74 73 68 63 68 65 70 65 48 42 42 43 51 52 49 53 51 50 49 49 48 45 46 44 46 46 47 46 44 42 42 45 48 51 52 52
71 71 73 77 76 83 66 61 59 61 65 70 75 68 52 46 36 50 51 52 53 53 54 51 53 55 62 60 52 52 52 52 52 54 55 54 53 54 58 50 53 54 55
66 60 58 58 54 55 60 64 62 56 49 50 50 50 52 44 79 67 69 57 57 55 55 52 51 58 58 67 72 72 68 61 60 60 58 56 50 48 47 49 52 56 59
55 55 60 63 54 49 46 44 46 49 48 47 48 51 56 57 70 69 69 53 55 56 55 52 48 45 58 55 62 69 71 73 77 71 74 66 63 56 52 58 60 58 56
55 63 64 56 46 47 48 48 48 46 48 48 54 57 54 47 66 68 68 62 66 63 57 55 55 56 58 65 64 64 63 63 62 60 62 59 55 53 56 56 54 54 54
56 61 52 49 49 51 49 48 48 48 49 52 50 52 52 54 66 68 70 74 74 71 61 58 59 61 67 74 76 84 72 60 58 72 75 76 77 76 72 64 79 74 82
58 54 47 51 51 49 49 48 48 48 49 52 54 54 63 72 70 73 71 72 81 73 69 65 70 70 79 85 93 89 87 66 67 81 77 67 72 76 84 78 78 80 71
55 52 48 48 50 50 47 48 47 47 64 79 83 79 75 70 73 73 70 78 80 77 74 69 70 87 92 82 80 85 82 70 78 76 68 63 66 76 68 66 77 85 78
54 52 48 48 50 46 47 47 47 54 71 81 84 79 68 79 70 71 72 76 77 90 84 81 91 88 81 77 75 78 83 84 81 82 80 74 75 78 68 62 60 66 72
56 53 49 50 50 48 47 50 51 54 69 73 67 73 68 67 69 69 78 80 74 87 92 91 87 87 81 72 76 83 85 82 86 88 83 77 77 73 77 92 89 74 83
54 53 52 54 55 54 53 54 53 68 70 68 70 71 70 67 71 71 76 74 75 89 91 86 90 91 80 74 73 75 81 84 85 84 82 80 86 90 87 83 87 86 92
53 53 58 62 63 59 59 56 63 69 71 72 69 71 85 84 80 84 87 88 92 91 93 90 88 86 72 71 74 76 79 79 82 84 85 85 83 82 82 85 83 85 90
60 60 68 70 68 61 56 57 62 70 72 67 69 77 77 75 82 85 87 90 91 92 88 90 92 91 83 78 80 78 78 81 80 81 84 84 84 84 83 83 81 85 86
79 80 71 74 69 68 70 73 76 69 73 71 72 70 71 73 83 85 88 90 90 88 89 89 92 92 88 77 77 79 82 82 82 81 84 87 88 85 88 87 87 84 84
86 91 78 70 73 75 79 78 78 82 87 83 74 73 76 73 79 83 86 85 85 85 86 89 90 89 84 78 78 80 80 82 82 83 86 88 90 87 88 86 85 90 85
82 73 83 83 82 86 83 79 80 81 83 81 75 70 76 75 75 81 84 87 89 88 87 86 89 85 83 81 88 88 89 89 88 89 88 86 91 87 84 84 86 90 87
76 85 86 80 80 80 78 79 77 81 80 83 80 81 77 74 85 86 87 90 90 86 86 83 82 83 87 86 89 90 86 87 86 84 90 91 92 88 88 86 87 86 81
80 76 94 77 79 82 82 81 81 84 85 84 85 88 87 83 85 85 85 85 79 76 82 80 85 88 86 87 84 88 84 88 87 87 87 86 91 89 85 84 84 80 78
87 87 84 83 85 86 84 80 84 85 84 84 85 83 86 86 85 84 83 83 84 80 79 82 82 83 85 86 88 91 88 88 88 89 88 86 84 84 83 82 82 82 78
91 92 86 83 87 93 88 81 85 88 86 87 86 85 84 87 88 86 84 86 82 82 82 82 84 82 82 86 86 86 89 90 89 88 88 87 84 86 86 84 81 80 80
92 93 89 90 94 95 95 92 90 88 88 89 91 90 88 88 88 88 86 86 84 84 84 84 83 83 80 83 81 79 81 86 83 81 83 83 82 83 85 82 82 85 81
94 94 93 93 94 95 95 92 92 90 90 92 91 91 87 88 84 87 89 90 85 85 82 84 84 81 83 83 83 82 86 86 83 84 78 76 81 82 84 80 86 82 85
92 92 92 94 94 95 94 95 94 93 92 92 92 91 91 89 85 86 86 85 86 84 82 83 83 83 82 74 76 84 86 84 82 82 82 76 80 80 79 80 81 79 81

GFSGL_sfc_rhum_006.txt.gz
RH
42 44 45 46 45 45 46 49 50 52 47 44 45 49 54 68 79 82 73 61 48 45 43 41 39 36 35 33 34 34 35 35 38 32 27 28 33 35 34 34 34 34 34
43 43 45 46 44 46 50 51 54 56 54 54 62 71 70 69 60 54 55 45 41 39 40 40 38 25 38 38 36 40 38 37 38 42 34 32 34 34 36 39 30 25 29
41 41 42 48 48 52 56 58 63 67 67 70 64 62 64 62 55 47 40 39 40 41 40 39 38 40 43 40 41 41 38 31 37 38 38 33 33 32 34 36 37 38 29
43 43 46 51 61 65 68 60 56 52 50 48 46 46 48 42 38 36 35 39 41 38 43 45 44 45 45 44 40 41 36 37 37 36 35 34 33 33 34 36 39 36 36
47 44 50 48 46 44 44 43 42 40 34 34 35 36 38 36 30 48 39 42 43 44 46 43 45 48 58 59 49 46 43 41 38 38 38 38 39 39 40 38 42 43 43
46 48 45 45 42 41 40 39 36 35 34 36 37 38 41 31 72 70 64 48 43 41 42 41 40 51 50 62 62 65 65 58 52 49 50 53 49 46 44 49 56 58 58
45 43 45 46 40 38 33 30 34 38 40 41 41 42 45 44 63 65 68 48 45 46 46 44 39 32 50 43 56 68 69 71 74 66 68 63 61 57 56 62 62 62 57
44 43 45 42 38 33 33 34 37 38 40 41 43 44 45 39 61 66 67 56 54 52 48 46 44 43 46 57 56 59 59 57 59 58 61 55 53 51 53 52 56 62 64
42 46 44 40 38 33 34 37 38 40 41 42 44 46 47 47 63 66 67 66 63 59 49 46 52 62 65 69 72 85 69 61 58 68 70 70 72 75 71 64 85 74 87
44 48 40 39 37 34 38 40 40 39 41 45 54 55 60 63 64 68 67 68 81 76 72 65 70 66 74 77 92 88 82 61 57 64 61 79 81 64 78 72 72 78 74
40 42 40 38 34 36 38 39 40 41 52 76 88 75 66 65 63 64 66 78 82 79 71 68 65 91 93 85 79 83 80 75 69 66 65 65 61 63 67 70 70 80 80
41 42 42 38 34 33 39 41 42 47 61 79 90 84 61 81 57 62 66 72 80 89 82 74 92 83 83 77 72 75 76 80 81 85 82 75 72 67 61 62 65 65 67
43 44 42 39 38 38 41 46 46 47 68 73 60 65 57 58 57 67 74 75 73 83 87 92 83 84 82 74 79 78 84 86 87 88 85 81 76 69 72 78 74 65 65
45 43 41 41 43 43 44 45 43 60 71 59 59 58 59 58 64 69 73 74 77 84 82 92 88 90 90 90 83 78 83 84 82 84 82 75 77 83 90 82 84 86 87
41 42 44 48 50 50 45 43 52 59 66 65 61 64 78 77 75 81 86 86 89 87 91 89 85 85 85 74 73 73 74 73 82 82 83 83 80 74 82 77 80 83 91
52 48 54 61 60 55 45 46 70 70 69 66 68 74 73 67 75 80 85 88 88 88 85 88 91 92 89 76 74 76 78 79 78 78 86 83 84 80 80 88 80 81 86
71 71 62 67 60 58 60 62 65 59 70 70 69 67 69 71 73 77 83 87 88 83 86 87 91 92 90 71 74 78 79 78 82 81 86 86 84 78 86 90 94 90 82
79 87 69 63 63 67 70 71 68 71 74 70 63 61 66 70 70 74 78 80 80 80 82 86 88 87 74 66 71 79 82 82 82 80 83 84 85 84 82 82 86 94 91
67 65 82 81 79 79 77 73 70 69 68 67 60 55 64 67 71 72 74 82 85 84 82 80 80 75 74 70 80 81 89 87 85 89 84 83 88 84 79 76 81 89 90
60 79 79 73 74 73 71 71 68 68 66 68 64 67 68 67 80 82 81 82 75 66 70 67 70 74 80 79 82 82 77 84 84 83 87 88 87 88 82 78 79 83 79
61 64 85 67 69 71 74 73 70 71 71 69 69 80 77 77 79 80 74 74 72 70 74 70 73 78 78 79 75 80 75 80 81 82 84 85 88 88 81 78 78 76 71
72 76 75 76 73 78 76 73 75 74 69 70 72 71 76 80 76 77 73 76 78 73 71 73 72 72 76 79 80 84 79 80 80 80 83 86 83 86 85 78 78 81 73
80 86 78 71 79 80 82 77 77 80 77 76 74 70 74 81 80 76 78 78 73 75 75 73 76 73 73 77 77 77 80 83 83 80 80 78 76 81 86 82 77 80 76
79 91 81 84 87 83 84 85 83 81 82 78 80 80 78 78 81 79 82 83 77 75 76 76 73 73 73 77 75 72 70 81 79 77 76 74 72 73 75 72 75 76 78
92 95 93 91 88 84 84 84 85 87 85 81 81 81 76 79 74 75 78 80 81 76 71 74 75 71 71 72 75 76 80 79 76 78 73 68 71 72 73 71 74 70 74
86 88 89 91 91 87 84 85 85 86 86 85 80 82 82 77 77 77 75 73 73 72 69 72 72 71 72 65 68 76 77 80 80 78 73 66 71 72 73 71 71 70 70

GFSGL_sfc_rhum_009.txt.gz
RH
37 39 43 42 42 41 41 42 50 59 51 56 60 62 63 64 69 75 67 62 64 63 55 49 45 43 40 36 40 39 37 37 44 38 30 33 38 41 34 38 37 40 40
37 37 37 37 37 38 42 51 57 52 55 56 58 60 62 66 69 67 67 59 50 49 48 48 46 35 42 39 36 38 36 36 39 44 36 36 39 39 41 44 30 25 32
36 34 34 36 39 44 46 47 48 48 45 45 44 46 43 42 38 37 35 38 41 42 42 42 40 41 42 41 41 42 38 31 38 38 38 35 35 35 37 38 39 41 28
35 33 36 41 41 42 44 43 40 36 35 32 32 32 34 32 31 31 33 39 38 35 38 40 39 41 43 44 43 44 39 41 39 40 39 37 36 34 36 38 42 39 38
37 35 39 39 38 39 40 37 36 34 31 30 32 33 34 33 30 46 44 46 45 43 44 37 41 46 60 56 42 47 48 48 45 42 42 42 40 40 40 39 43 44 46
38 37 36 38 44 43 38 36 32 32 32 34 35 36 38 28 70 64 61 49 45 43 43 41 38 49 50 66 69 71 61 51 52 51 49 50 48 47 45 48 52 54 58
34 34 34 42 47 40 34 28 30 33 35 37 37 36 39 41 60 62 67 52 51 48 47 46 41 33 49 39 51 66 70 74 75 63 67 61 59 53 54 60 64 65 64
33 33 36 42 44 37 32 30 32 34 36 37 39 41 44 40 69 69 68 56 54 52 48 48 50 46 45 53 56 56 56 55 56 56 64 58 57 53 55 55 60 63 64
36 33 35 42 45 37 32 33 34 35 37 38 40 48 54 55 66 70 66 63 65 61 51 51 54 54 59 64 67 75 66 60 56 68 71 73 74 74 70 67 84 92 88
35 30 35 36 39 37 34 36 35 34 36 43 51 54 63 62 70 62 66 70 79 71 64 57 65 63 74 77 83 89 88 65 59 64 65 61 88 84 81 72 68 77 77
33 32 38 40 38 34 34 34 34 36 48 68 84 71 62 64 62 61 67 73 75 84 74 72 70 96 91 89 83 80 80 79 73 66 64 64 60 58 58 71 67 75 78
34 40 45 44 36 30 36 34 37 41 54 72 93 85 67 75 62 64 68 68 77 84 81 76 92 83 77 78 76 74 79 75 80 84 85 81 80 71 60 59 66 86 75
59 57 62 45 37 31 34 36 39 42 56 73 58 68 60 63 62 58 66 73 72 86 88 83 90 91 84 82 92 79 81 88 92 88 85 81 82 82 75 78 81 79 81
58 54 46 40 40 37 33 35 38 53 65 59 60 58 63 67 61 62 75 79 76 80 84 86 92 92 91 93 89 84 87 88 84 88 86 81 81 88 94 90 95 83 92
56 45 45 43 42 41 38 40 47 56 64 61 60 64 80 78 68 73 82 86 89 86 92 90 87 86 87 86 79 80 83 79 84 85 88 85 85 83 86 85 73 80 90
58 50 53 56 52 50 43 44 70 71 66 64 64 73 72 64 69 72 74 80 85 86 88 89 92 92 91 88 88 83 77 78 78 81 85 87 86 84 87 94 76 79 77
66 61 55 58 55 54 60 66 68 65 74 69 69 67 61 65 67 69 71 74 87 78 86 88 92 93 85 68 78 80 82 82 79 81 84 89 86 86 94 89 86 92 86
67 77 68 64 64 68 71 75 71 74 76 70 81 64 61 66 66 67 68 72 76 76 82 86 86 77 70 64 67 75 80 82 82 83 86 87 87 88 89 86 86 82 79
55 66 79 83 82 78 81 78 75 72 68 66 65 58 59 64 86 81 69 77 80 73 70 67 69 69 72 72 81 84 88 87 89 89 86 87 87 87 84 81 85 83 77
44 76 76 76 77 76 75 75 72 72 67 67 68 66 63 66 79 82 80 78 73 65 68 63 65 70 76 76 82 85 84 81 86 86 88 92 90 84 90 84 84 86 79
53 64 78 72 76 73 75 78 75 76 75 69 74 82 69 75 78 80 79 76 70 69 73 68 72 74 73 75 71 80 77 83 78 80 84 88 91 88 82 82 81 80 74
68 80 79 82 77 84 81 73 80 78 76 72 73 71 72 85 75 78 78 80 76 71 70 72 71 69 70 73 74 80 78 79 80 82 84 81 80 81 86 85 80 82 77
78 84 84 79 80 79 87 83 85 86 83 81 76 73 72 73 77 76 80 83 77 74 72 71 75 73 72 76 74 73 75 79 81 84 86 83 75 77 81 77 79 76 80
79 88 82 88 92 83 87 88 89 84 85 84 86 85 78 73 75 74 83 86 82 80 74 75 71 69 71 75 74 72 69 78 77 76 84 80 73 72 74 68 70 70 71
93 94 92 89 90 91 88 88 89 89 91 88 89 86 78 74 70 71 72 73 75 77 71 72 73 69 69 70 72 74 76 76 79 80 81 71 72 72 75 67 73 67 68
85 86 89 92 91 93 94 87 90 89 89 89 87 87 82 75 71 72 71 71 70 70 68 69 69 68 68 63 68 75 76 77 78 82 79 68 71 71 74 71 71 68 66

GFSGL_sfc_rhum_012.txt.gz
RH
49 51 55 54 54 56 58 64 64 67 64 59 61 58 59 65 80 86 84 82 74 72 70 68 66 59 60 58 59 55 59 62 68 53 52 49 52 58 49 61 58 47 62
49 49 49 51 50 54 58 59 61 62 63 58 56 55 56 58 63 70 72 66 66 66 63 63 62 43 56 56 54 56 58 56 60 58 54 53 53 51 51 53 40 31 48
42 41 45 49 52 54 55 58 58 59 56 52 46 48 46 49 47 48 47 54 56 53 52 54 52 56 60 62 62 61 58 47 57 58 58 56 54 54 52 52 52 56 42
39 40 46 52 51 53 55 55 55 52 49 47 47 48 50 43 39 48 48 56 58 53 56 55 53 53 58 62 60 67 56 63 58 59 57 54 54 50 56 54 60 60 59
44 42 50 49 49 53 58 54 54 52 45 46 46 49 50 44 40 61 57 59 60 58 57 51 51 56 61 63 48 59 64 68 68 65 64 61 58 60 64 62 66 69 68
52 50 46 48 49 56 61 58 53 50 47 49 51 52 55 35 70 66 70 71 62 62 63 58 55 59 58 65 66 70 68 66 63 66 65 68 65 63 65 70 82 83 87
49 45 55 65 61 60 54 48 45 50 53 56 56 54 58 61 70 70 72 68 67 64 64 62 56 46 61 57 70 72 73 82 85 76 77 77 74 66 65 70 78 86 89
36 48 66 62 58 50 52 49 51 50 55 56 59 60 64 53 69 71 75 75 72 69 67 62 62 64 65 65 64 74 73 70 71 68 76 81 73 68 73 77 87 82 84
28 53 63 58 49 55 52 51 52 53 57 59 59 67 71 70 71 74 83 83 80 75 65 68 68 66 65 67 76 81 83 77 62 68 86 94 83 78 80 83 88 86 90
50 51 60 64 56 58 57 52 52 53 53 70 75 76 74 77 74 73 79 90 89 80 77 72 69 72 96 85 96 97 97 88 75 78 79 70 66 65 80 91 96 94 83
51 54 71 84 71 70 54 50 52 56 68 89 91 88 80 77 77 65 79 88 87 86 83 80 78 88 96 89 79 91 89 82 85 81 78 74 73 71 71 69 75 95 92
57 56 57 60 59 45 52 54 55 60 76 87 88 87 84 85 67 64 80 67 69 91 91 91 92 78 82 78 80 86 86 85 89 90 90 90 93 91 81 73 74 82 86
53 59 60 60 51 46 51 55 58 64 84 86 77 79 74 76 74 67 68 67 72 90 93 90 90 94 84 91 87 88 91 94 96 97 94 93 95 89 84 90 90 94 93
56 58 57 54 53 50 48 52 61 84 90 81 79 80 80 78 78 78 84 86 77 84 87 91 95 89 92 94 95 88 94 97 95 97 96 94 96 97 97 96 98 98 98
58 58 65 72 69 60 51 65 81 85 81 86 87 88 93 92 80 70 76 87 91 92 93 94 92 91 92 92 87 87 91 90 93 94 96 96 95 94 92 94 98 95 98
77 73 75 78 79 69 64 64 73 75 64 63 63 86 90 70 66 64 67 69 78 82 92 94 95 96 95 94 95 94 94 95 93 95 96 94 95 96 96 92 97 98 97
79 77 74 79 79 82 83 82 86 81 76 71 71 72 67 66 63 64 66 68 82 78 92 93 95 89 86 80 86 94 95 95 88 93 94 96 94 94 97 94 94 94 90
80 80 86 84 91 90 85 84 85 88 90 88 89 82 60 62 64 72 72 68 81 81 87 93 88 86 84 82 83 86 90 92 89 92 94 95 95 97 96 95 95 97 95
70 78 91 90 94 93 90 90 89 87 86 83 88 81 78 62 67 72 69 91 88 81 77 76 84 84 86 85 89 89 90 93 91 91 92 95 97 96 96 93 94 93 93
66 76 82 84 91 91 92 90 87 90 86 86 90 94 91 87 94 94 94 95 94 88 87 81 81 84 88 87 89 90 89 88 88 88 90 91 95 95 97 95 94 95 93
76 80 81 86 86 94 91 90 92 92 92 88 90 95 79 91 96 95 95 95 95 94 94 87 88 90 88 86 85 88 88 89 88 90 90 91 93 92 94 96 93 93 91
86 84 89 94 93 93 94 89 88 91 91 93 93 93 85 95 94 94 94 95 96 93 94 93 91 91 90 89 90 90 89 90 90 92 91 91 90 86 88 90 95 95 93
85 88 89 90 92 94 92 92 93 93 94 93 91 94 94 94 93 92 94 95 95 95 94 93 94 94 93 93 92 90 90 93 93 91 92 94 93 87 88 90 88 94 92
85 89 89 89 92 93 92 93 95 91 92 94 93 94 95 94 92 90 92 93 93 94 95 93 93 90 91 92 93 91 87 89 89 91 93 95 91 89 88 89 92 88 93
90 92 93 92 92 92 93 91 94 94 93 93 95 95 94 94 92 92 90 91 92 91 90 90 93 87 86 85 89 88 90 88 89 88 92 92 88 89 90 91 90 89 90
95 90 92 92 93 93 93 95 95 95 95 93 93 95 94 95 93 92 91 90 92 91 88 92 88 81 84 88 86 86 86 87 89 88 92 92 91 93 93 92 89 91 89

GFSGL_sfc_rhum_015.txt.gz
RH
56 58 56 57 63 67 70 70 66 70 67 69 68 70 68 72 76 84 87 87 89 85 83 70 65 62 71 84 77 66 64 61 72 66 63 59 56 59 56 83 80 82 82
54 54 54 58 57 62 64 63 65 62 67 67 60 56 58 58 62 62 64 69 69 70 69 67 64 50 62 64 69 67 68 68 67 76 69 64 58 55 59 56 44 41 52
51 51 52 55 56 61 54 62 60 64 58 54 52 56 57 60 56 61 64 68 69 68 67 66 62 60 63 64 68 76 75 58 69 73 74 66 65 62 55 60 54 54 40
56 58 65 71 64 59 61 60 56 55 51 51 52 54 58 56 57 60 59 69 70 65 70 69 65 63 66 70 63 69 66 74 71 73 73 72 72 64 68 68 74 70 64
60 61 67 71 65 71 75 69 74 58 50 49 51 55 58 54 53 72 72 76 76 74 74 64 62 63 62 66 65 66 72 74 76 77 79 75 75 79 75 82 84 86 78
63 53 69 77 76 79 81 83 67 56 49 51 56 59 65 49 74 69 72 82 75 74 75 65 68 64 65 64 68 79 79 81 78 81 78 81 79 79 73 82 86 89 92
37 56 78 79 80 82 74 73 53 52 54 56 63 65 68 72 74 70 74 81 82 80 77 74 65 50 67 69 70 71 75 73 86 93 95 88 82 80 81 82 87 90 92
58 61 74 76 82 79 83 69 53 53 54 64 71 75 77 64 74 77 85 93 88 84 80 73 72 74 74 72 72 77 81 80 78 74 91 85 86 83 82 76 82 95 96
61 65 72 78 81 82 78 56 52 54 70 75 79 80 82 83 78 79 84 92 91 88 77 73 70 71 72 81 86 92 94 88 71 71 73 76 81 85 90 96 98 95 88
70 68 80 90 93 91 96 81 60 61 76 83 83 85 82 89 72 64 90 97 96 90 84 75 72 72 93 93 98 98 96 85 82 86 85 78 72 73 71 76 85 94 94
66 68 68 79 86 85 82 64 61 74 87 93 89 89 83 80 80 65 70 86 86 91 85 81 82 77 80 87 80 93 93 84 90 90 88 82 77 75 76 77 77 88 89
64 67 71 72 67 57 63 62 70 83 85 92 94 94 93 90 68 70 68 66 69 92 92 88 92 93 83 81 89 92 91 90 97 96 95 92 92 92 88 95 97 87 80
69 70 72 70 62 60 64 71 79 83 93 95 90 96 94 92 90 70 74 73 74 90 92 93 92 82 88 93 94 92 96 97 97 97 97 96 94 92 92 97 96 98 97
73 74 73 77 77 71 67 73 87 96 96 90 93 94 97 96 94 90 86 96 83 88 87 94 93 91 95 96 91 90 93 96 95 96 96 95 97 98 98 98 97 99 98
78 80 86 87 84 78 73 79 94 85 88 93 96 95 98 98 92 76 72 80 86 92 92 94 91 90 90 92 87 88 89 95 94 96 96 95 95 95 97 97 96 98 99
82 88 93 94 94 86 86 89 78 78 71 65 66 91 94 74 70 64 64 66 75 74 88 94 95 94 92 87 93 92 91 95 93 94 96 96 95 96 96 95 98 99 99
84 86 95 94 97 96 96 97 96 89 81 79 73 74 73 65 63 66 68 63 63 72 90 94 96 95 93 87 89 90 94 96 93 93 94 95 96 95 97 96 95 96 95
86 90 95 97 98 98 87 84 96 98 99 94 85 82 64 62 63 66 67 72 94 87 89 89 92 94 93 90 90 92 92 92 92 94 95 94 95 97 98 98 98 100 97
86 92 96 96 97 93 96 97 97 96 97 96 96 94 82 60 68 68 72 97 97 97 96 89 92 92 91 91 95 94 94 94 93 94 94 94 94 96 95 98 98 98 97
88 86 92 96 95 95 98 97 96 98 98 97 97 98 95 93 97 99 99 99 98 97 98 97 92 92 95 93 95 94 92 92 92 93 94 94 94 94 95 97 96 98 98
97 96 93 96 96 96 98 97 98 98 97 98 98 98 90 94 97 99 99 100 98 98 98 98 98 98 97 96 94 95 95 94 93 94 95 95 95 96 91 92 96 96 98
96 94 94 98 97 98 97 98 95 97 98 98 98 97 96 98 99 98 98 99 99 98 98 97 98 97 97 95 96 98 97 98 95 95 95 94 95 95 93 94 91 98 94
94 95 96 94 95 98 99 98 96 98 98 98 97 98 98 98 98 97 97 98 99 98 98 97 98 97 97 96 97 97 98 96 96 97 97 96 96 95 95 97 96 96 98
93 95 96 96 98 99 98 98 97 97 96 99 99 98 99 99 98 96 97 98 99 98 99 97 97 95 96 95 97 97 97 97 95 95 96 98 97 94 94 95 93 96 97
94 94 97 98 98 98 98 98 97 96 97 98 99 99 98 98 98 97 97 97 97 98 96 97 97 94 90 91 93 93 93 91 92 91 96 98 97 94 93 93 96 96 96
94 95 96 96 98 98 98 98 98 98 96 97 98 98 99 99 98 97 97 97 97 97 93 98 95 90 86 96 92 91 89 88 91 90 94 97 97 96 95 94 92 96 93

GFSGL_sfc_rhum_018.txt.gz
RH
59 61 61 61 67 76 74 73 72 74 71 64 69 63 59 59 63 69 71 75 72 73 74 73 73 71 73 73 76 75 80 78 74 69 71 63 57 60 57 60 76 90 92
61 62 60 63 63 67 70 71 75 66 64 67 60 53 57 58 61 63 69 70 71 72 73 75 72 53 69 70 71 71 78 74 81 80 74 67 61 58 60 63 46 34 57
62 60 58 62 62 66 67 71 68 68 67 62 55 54 54 59 61 65 67 71 72 72 74 76 75 73 72 71 74 76 71 65 77 76 78 75 72 66 67 66 64 68 52
63 64 69 75 79 78 71 78 84 86 82 67 55 55 60 60 62 63 65 73 74 71 77 78 77 74 74 76 74 79 75 85 82 78 78 76 77 71 74 78 82 84 76
57 62 78 80 76 77 83 88 89 83 82 61 54 59 63 62 57 74 72 75 77 78 77 75 68 66 60 58 62 74 94 97 92 83 79 80 77 77 77 80 85 84 73
52 78 76 78 80 82 86 89 91 89 59 51 59 66 68 53 74 71 75 84 79 78 82 74 73 67 65 64 69 70 69 95 93 93 89 82 80 81 82 83 86 91 91
68 70 79 80 84 88 89 90 86 84 66 64 67 66 75 73 74 76 82 84 88 89 86 82 74 58 70 74 77 74 73 72 80 81 87 94 93 85 84 88 92 93 94
69 73 77 82 85 86 90 90 88 70 65 67 77 81 78 70 80 80 78 93 94 91 86 83 80 75 75 72 83 95 84 85 83 76 82 89 90 85 86 84 87 90 88
72 74 79 85 88 92 96 97 94 79 72 83 82 80 89 89 68 67 89 96 89 87 77 76 71 77 81 85 83 93 93 82 67 67 73 88 82 86 89 92 94 95 95
73 73 75 86 91 93 94 94 92 71 80 80 80 86 74 83 67 62 68 98 96 87 82 72 73 76 84 91 96 97 90 82 83 86 91 82 75 76 71 81 86 89 88
68 70 72 74 79 82 84 78 74 87 86 93 86 87 83 79 80 63 65 84 89 92 85 82 82 84 84 78 79 94 92 90 93 94 92 90 85 82 80 81 82 89 90
69 70 73 74 70 64 70 78 82 85 85 94 94 95 94 94 66 71 68 68 70 92 92 88 94 81 87 90 92 89 88 95 97 97 96 94 94 93 88 91 91 94 91
73 77 78 76 75 71 71 80 85 86 95 95 92 97 97 92 90 76 79 73 77 94 90 88 78 81 84 91 89 93 95 95 97 98 96 95 96 96 96 98 97 97 96
79 82 84 84 83 80 74 80 86 97 96 92 94 95 97 92 94 93 94 96 88 86 88 91 90 84 85 94 93 92 94 96 96 96 96 96 96 97 97 98 98 98 96
79 81 85 90 89 84 76 83 91 85 90 95 96 95 98 98 93 79 75 82 89 88 94 92 89 89 87 85 86 88 91 93 94 95 96 96 95 95 96 97 97 99 99
82 86 94 97 97 89 83 80 77 81 76 73 71 91 95 84 72 66 67 63 61 70 94 98 96 96 95 91 92 91 88 92 93 93 94 94 94 96 96 94 97 98 98
91 86 96 95 97 97 96 97 95 88 82 81 79 75 76 68 64 64 66 65 63 74 98 98 99 98 97 91 92 92 94 92 92 93 94 94 95 94 96 98 98 99 97
86 90 95 97 98 98 98 91 98 99 99 97 84 84 75 65 62 63 67 72 93 90 98 99 98 97 93 91 92 94 93 92 93 93 94 95 95 96 96 96 98 100 99
88 96 97 98 98 96 97 98 98 97 98 98 97 97 89 70 67 71 79 97 97 97 97 98 99 99 96 94 98 96 99 94 94 96 95 94 95 94 94 95 98 99 96
83 92 97 97 97 95 98 98 97 98 99 98 99 98 97 93 95 100 100 100 100 98 99 97 98 99 99 98 99 98 97 95 93 94 96 96 96 96 95 95 97 97 99
90 84 90 92 94 95 96 97 97 99 96 98 98 99 96 94 96 99 99 100 100 99 99 98 98 100 99 98 98 98 98 99 96 96 96 96 97 98 95 96 96 95 94
91 88 90 93 96 99 97 97 97 96 96 100 98 99 100 99 98 98 99 98 98 98 98 98 98 98 98 97 98 98 98 98 98 97 96 96 97 97 96 97 97 99 98
95 95 96 97 96 97 100 98 99 97 98 98 98 99 99 98 98 98 98 96 99 99 99 99 99 98 98 99 99 98 98 97 98 99 99 98 97 97 97 98 99 98 98
96 93 93 95 98 99 100 99 97 98 96 98 99 100 99 99 100 99 97 98 100 100 100 99 98 96 97 99 100 98 97 98 98 96 98 99 99 96 96 97 97 98 98
97 95 96 95 95 96 98 99 98 97 97 97 99 100 100 99 98 100 97 98 98 100 99 100 99 97 94 95 96 95 95 93 94 92 97 98 98 95 96 97 98 97 98
97 94 94 94 96 98 98 98 98 97 98 97 96 99 100 100 99 99 98 99 98 97 98 99 98 94 94 98 95 96 91 91 91 91 96 96 97 96 97 97 95 97 97

GFSGL_sfc_rhum_021.txt.gz
RH
67 69 71 69 69 76 83 81 80 75 72 70 71 74 61 63 63 67 68 75 71 74 76 75 77 76 81 79 80 77 80 87 89 77 80 72 61 59 57 62 60 62 88
67 66 64 67 69 72 78 77 80 80 75 73 69 65 61 61 62 65 68 70 72 73 75 77 77 58 76 79 78 76 79 79 84 82 82 77 68 60 61 65 50 45 70
63 63 65 75 81 79 80 77 76 77 82 80 80 72 63 63 63 66 69 70 72 75 76 78 78 78 80 78 77 79 81 72 80 86 81 80 78 75 71 68 70 75 55
52 63 75 81 80 78 77 77 82 89 86 83 86 67 67 64 63 64 66 72 76 74 77 79 78 78 76 77 71 73 82 85 86 90 89 82 78 75 79 76 80 81 76
56 72 76 77 79 82 83 87 92 91 87 90 75 64 67 62 58 70 72 76 79 81 80 77 75 73 68 64 60 73 82 84 82 96 91 88 84 78 79 78 83 85 82
64 74 79 83 86 87 91 92 93 88 74 82 63 69 69 55 73 74 84 91 83 83 91 82 78 73 71 64 68 70 71 82 86 89 87 88 91 85 82 84 86 91 91
69 71 79 82 83 86 90 93 94 91 90 75 72 74 77 78 78 80 77 88 91 94 87 85 73 59 70 72 75 73 78 79 87 97 95 90 86 82 85 88 93 93 95
71 75 80 83 86 87 93 95 90 86 81 79 84 78 83 79 70 65 82 91 90 86 75 77 78 77 78 74 88 93 78 82 78 78 94 95 85 85 86 80 87 89 90
75 78 78 83 91 92 94 94 97 96 80 87 81 86 84 77 66 63 71 94 88 83 75 74 71 76 81 89 94 95 89 81 70 70 69 70 77 91 90 96 92 94 95
74 75 77 79 83 91 92 93 91 77 82 80 76 83 71 83 68 63 67 97 97 89 83 76 76 75 80 79 94 95 95 80 75 82 87 86 81 79 74 80 91 96 95
70 72 76 77 79 78 83 82 81 88 84 91 84 89 82 78 79 66 66 92 91 90 87 83 84 80 81 85 85 95 96 91 93 90 91 90 88 85 84 82 85 88 89
74 74 76 78 76 64 73 86 84 84 86 92 94 95 94 94 70 75 73 71 71 96 92 88 94 74 79 84 88 91 88 94 96 96 95 94 95 95 88 89 91 90 86
79 79 80 81 79 76 74 84 87 85 94 94 95 98 96 92 91 76 84 74 78 94 89 80 74 72 75 80 84 88 91 94 95 96 95 94 96 96 96 98 97 96 97
82 81 82 82 85 84 75 78 85 97 97 92 97 97 97 93 95 93 96 97 86 83 90 94 91 85 86 86 84 84 91 94 95 95 95 94 95 96 97 97 98 98 98
79 77 82 87 88 80 76 82 86 85 89 95 96 95 99 99 93 83 80 92 91 92 94 97 96 90 91 87 86 86 87 88 91 93 93 94 94 94 96 96 96 97 99
91 89 96 94 95 89 88 84 76 84 81 80 78 92 96 85 78 65 65 64 63 69 94 100 100 100 96 92 93 92 90 90 91 92 93 93 93 94 95 95 96 97 98
94 94 96 97 94 95 96 94 89 84 81 80 78 80 79 82 67 62 64 64 63 73 98 99 100 100 100 92 92 93 94 90 90 92 94 94 94 93 95 95 95 96 96
91 95 98 93 94 97 97 95 97 98 99 97 85 84 82 74 66 62 65 75 93 90 98 99 100 100 100 97 94 95 95 92 92 94 95 95 95 96 95 94 95 98 96
91 96 94 94 98 97 96 98 98 99 98 99 98 96 97 74 72 71 82 97 97 97 97 98 99 100 99 99 100 99 98 97 96 97 96 96 96 95 94 94 96 98 98
95 95 93 92 95 93 94 98 99 97 99 99 100 98 98 94 94 98 100 100 100 98 98 97 97 99 99 99 100 100 99 97 95 94 97 98 98 98 96 96 96 99 98
98 98 94 90 90 93 97 96 97 98 98 98 98 98 98 98 97 97 98 100 100 99 98 97 98 99 100 99 99 100 100 100 97 96 96 97 98 100 96 97 97 96 93
99 97 97 94 92 99 98 98 98 98 97 97 97 99 100 100 98 97 97 98 98 97 97 98 97 97 98 98 98 100 100 100 98 98 97 97 97 98 97 97 98 99 96
97 98 97 97 96 97 98 97 99 99 97 98 96 98 100 100 99 99 98 97 99 98 98 99 99 98 99 100 100 99 99 99 99 100 99 99 98 97 97 98 98 98 97
98 97 97 97 97 98 99 98 98 99 99 97 98 99 99 100 100 100 99 98 99 98 100 100 98 96 97 100 100 100 98 99 100 99 100 99 99 96 97 97 97 97 97
98 98 97 97 96 95 96 97 97 97 96 97 98 98 97 99 100 100 100 99 98 99 98 100 100 98 94 95 97 97 97 96 96 97 99 99 100 96 96 97 98 97 97
98 97 97 97 96 96 96 94 94 95 97 96 96 97 96 96 97 97 98 99 99 98 97 99 98 96 94 96 96 98 96 94 96 95 100 98 98 96 97 97 95 97 96

GFSGL_sfc_rhum_024.txt.gz
RH
74 74 72 70 71 75 83 86 83 80 76 80 80 82 81 68 69 71 71 72 81 76 76 75 77 76 80 79 77 78 76 80 83 72 67 65 72 70 58 61 60 65 71
68 60 62 70 78 78 77 79 81 82 83 84 76 75 75 77 70 66 72 70 74 72 74 76 75 60 76 76 76 75 76 74 82 83 75 73 74 66 65 65 50 40 65
54 56 66 78 80 79 79 80 80 84 85 85 81 81 81 72 68 70 71 70 70 75 77 78 77 78 79 77 73 74 76 67 76 90 84 78 76 72 67 67 64 70 58
50 63 73 77 79 81 83 83 86 88 92 88 86 87 72 66 66 66 66 73 77 76 78 79 81 81 80 78 74 78 67 73 75 77 75 76 83 73 74 69 68 71 65
51 68 75 82 84 87 87 89 92 94 93 82 72 65 69 64 59 71 76 86 88 86 84 81 81 77 71 67 62 69 72 79 83 83 81 75 76 82 81 72 77 71 71
55 75 81 81 81 84 88 92 94 95 80 86 74 75 78 62 78 80 84 92 87 85 86 77 74 68 67 67 69 69 70 85 90 92 82 83 77 72 84 90 88 80 77
60 72 77 80 84 87 90 94 95 92 89 87 80 80 81 88 75 67 75 80 80 80 76 74 69 57 72 72 77 74 76 76 88 87 95 82 88 76 75 76 84 85 81
72 75 79 83 88 90 92 93 94 89 89 84 85 82 85 73 65 64 66 86 87 80 74 75 74 76 76 73 89 87 76 75 76 74 82 82 81 82 92 77 80 80 82
72 78 81 84 87 87 89 92 93 95 88 84 80 83 77 73 65 64 69 85 85 82 73 73 70 73 76 80 89 91 82 76 71 74 73 71 70 72 74 94 95 92 92
74 76 78 82 82 84 85 88 92 83 84 80 74 80 71 80 67 64 69 93 96 89 84 74 75 71 74 77 94 95 94 79 78 83 82 80 78 81 80 80 86 93 93
73 76 78 79 81 82 78 82 83 90 84 91 86 87 80 76 79 67 69 93 92 92 88 81 80 78 74 70 80 94 95 89 89 86 84 83 85 87 81 79 80 85 86
76 81 80 81 79 75 76 86 86 87 86 93 95 95 93 94 75 75 74 72 71 99 88 86 91 70 68 71 78 80 83 90 92 93 91 89 91 91 88 92 88 86 80
84 85 83 76 80 79 77 84 86 86 95 94 96 98 95 91 92 76 82 77 69 94 88 78 73 72 76 82 76 76 88 91 92 92 92 89 91 92 93 95 96 93 92
86 85 84 77 79 83 77 77 86 97 97 89 98 97 98 95 96 93 95 98 78 85 90 91 93 87 89 89 84 84 88 90 93 93 92 90 91 93 94 96 95 97 96
85 86 86 87 96 83 76 85 87 86 88 94 95 96 99 100 93 87 82 95 94 92 94 96 96 93 88 88 86 84 86 83 89 92 92 91 89 89 92 95 93 94 95
97 95 91 95 98 93 84 88 80 85 82 81 81 93 96 85 79 74 62 64 62 69 92 100 100 100 100 94 93 90 86 85 86 90 92 90 90 92 91 89 90 93 93
95 92 93 98 98 98 97 94 96 85 79 82 81 80 82 85 81 68 62 64 62 74 97 98 100 100 100 95 96 91 92 87 88 89 92 93 93 89 93 92 92 89 87
95 96 98 98 98 98 97 97 97 98 98 96 85 81 82 81 79 69 65 75 93 90 96 98 100 100 99 95 96 97 91 91 88 90 94 95 95 94 94 93 92 98 91
97 98 98 98 97 96 98 98 98 98 98 97 98 96 98 85 75 75 75 97 97 97 95 95 98 97 98 95 100 100 100 97 94 96 95 94 97 94 93 91 94 97 94
94 99 99 98 98 96 96 98 98 98 97 98 99 97 98 97 99 97 100 100 100 98 97 96 95 96 98 98 100 100 100 99 96 92 95 97 97 96 96 95 95 96 88
94 97 97 98 98 97 92 98 97 96 97 96 97 97 96 98 98 99 97 100 100 99 98 97 97 98 97 98 96 100 99 100 98 97 95 94 97 98 94 94 95 92 86
96 98 98 96 96 98 96 96 98 99 98 97 96 96 100 100 100 99 98 97 97 97 97 97 97 96 96 95 96 100 100 100 99 98 98 96 94 94 94 93 94 94 89
98 98 97 97 97 98 99 97 97 98 98 97 97 97 98 100 100 99 98 97 97 98 98 98 99 98 97 98 98 96 98 97 95 100 100 100 97 94 95 94 92 92 92
96 97 98 97 97 97 97 96 96 98 96 96 97 98 97 97 97 98 98 97 98 99 99 98 98 97 97 98 98 99 96 98 98 96 99 100 100 96 93 91 89 92 91
97 98 98 97 97 97 96 96 94 94 94 94 95 96 96 96 96 97 97 98 98 100 98 98 98 97 96 95 95 95 98 98 96 96 96 100 100 99 95 92 92 89 91
94 94 98 98 97 97 97 96 96 95 96 96 96 95 94 95 95 94 95 97 98 98 97 97 97 96 96 96 93 97 98 97 94 93 100 96 98 96 96 96 90 89 88